SL-08 RB Rocket - Orbit

View from above orbital plane
View from above orbital plane
View from above satellite
View from above satellite

Ground track
Ground track

The orbit data is extracted from the following two-line orbital elements,

1 26387U 00033D   13139.80587438  .00000598  00000-0  11580-3 0  2052
2 26387 098.1541 205.7102 0027260 019.0141 093.3280 14.66715348689414
Epoch (UTC): 19 May 2013 19:20:27
Eccentricity: 0.0027260
inclination: 98.1541°
perigee height: 652 km
apogee height: 691 km
right ascension of ascending node: 205.7102°
argument of perigee: 19.0141°
revolutions per day: 14.66715348
mean anomaly at epoch: 93.3280°
orbit number at epoch: 68941

The dashed part of the orbit path shows where the satellite is in the earth's shadow,  

Developed and maintained by Chris Peat, Heavens-Above GmbH. Please read the updated FAQ before sending e-mail. Imprint. DLR